User: anonymous   Login
Location: York
(31.8935°S, 116.7682°E)
Time: 09:25:29
(UTC+08:00)
Language:

JUGNU - Orbit

View from above orbital plane
View from above orbital plane
View from above satellite
View from above satellite

Ground track
Ground track

The orbit data is extracted from the following two-line orbital elements,

1 37839U 11058B   21216.49644889  .00000315  00000-0  25975-4 0  9990
2 37839  19.9615 297.8331 0018744 262.3824 204.5959 14.12720256507261
Epoch (UTC): 04 August 2021 11:54:53
Eccentricity: 0.0018744
inclination: 19.9615°
perigee height: 836 km
apogee height: 863 km
right ascension of ascending node: 297.8331°
argument of perigee: 262.3824°
revolutions per day: 14.12720256
mean anomaly at epoch: 204.5959°
orbit number at epoch: 50726

The dashed part of the orbit path shows where the satellite is in the earth's shadow,  

DLR